Regional Weather Roundup
Issued by NWS

Home | Current Version | Previous Version | Text Only | Print | Product List | Glossary Off
Versions: 1 2 3 4 5 6 7 8 9 10 11 12 13 14 15 16 17 18 19 20 21 22 23 24 25 26 27 28 29 30 31 32 33 34 35 36 37 38 39 40 41 42 43 44 45 46 47 48 49 50

000
ASUS43 KFSD 281202
RWRSD

WEATHER ROUNDUP FOR SOUTH DAKOTA
NATIONAL WEATHER SERVICE SIOUX FALLS SD
700 AM CDT SUN MAY 28 2017

NOTE: "FAIR" INDICATES FEW OR NO CLOUDS BELOW 12,000 FEET WITH NO
SIGNIFICANT WEATHER AND/OR OBSTRUCTIONS TO VISIBILITY.


SDZ001>005-009-010-012>017-281300-
NORTHWEST AND NORTH CENTRAL SOUTH DAKOTA

CITY           SKY/WX    TMP DP  RH WIND       PRES   REMARKS
BUFFALO          N/A     50  40  68 W13       29.98R
FAITH            N/A     49  43  80 W9        29.98R
MOBRIDGE       CLEAR     48  41  76 NW6       29.88R
$$

SDZ012>016-024>037-041>051-057-063-072>074-281300-
SOUTHWEST AND SOUTH CENTRAL SOUTH DAKOTA

CITY           SKY/WX    TMP DP  RH WIND       PRES   REMARKS
RAPID CTY ARPT CLOUDY    49  38  65 NW9       30.05R
PIERRE         CLEAR     56  44  64 NW15      29.90R
CUSTER         PTCLDY    49  33  54 VRB3      30.15R
ELLSWORTH AFB  CLOUDY    55  39  53 NW14      30.05R
PHILIP         MOCLDY    49  43  80 W10       29.98R
PINE RIDGE     PTCLDY    48  43  82 W6        30.08R
SPEARFISH      FAIR      57  39  51 W13       30.09S
WINNER         FAIR      55  45  68 W12       29.93S
$$

SDZ004>011-016>023-039-040-281300-
NORTHEAST SOUTH DAKOTA

CITY           SKY/WX    TMP DP  RH WIND       PRES   REMARKS
ABERDEEN       PTCLDY    46  42  86 W7        29.84R
WATERTOWN      MOSUNNY   51  46  83 NW6       29.82S
BROOKINGS      SUNNY     48  46  93 CALM      29.84S
SISSETON         N/A     56  46  69 NW8       29.79S
$$

SDZ017-020-022-023-036>040-048>070-281300-
SOUTHEAST SOUTH DAKOTA

CITY           SKY/WX    TMP DP  RH WIND       PRES   REMARKS
SIOUX FALLS    SUNNY     53  48  83 W3        29.85R
HURON          CLEAR     48  45  89 W6        29.86R
CHAMBERLAIN    PTCLDY    53  47  78 W12       29.90S
MITCHELL       CLEAR     50  46  86 NW5       29.87R
YANKTON        CLEAR     54  48  80 W7        29.89S
$$

ABBREVIATIONS USED IN REMARKS
   TC - TEMPERATURE IN CELSIUS
  WCI - WIND CHILL INDEX
   HX - HEAT INDEX
  VSB - VISIBILITY





USA.gov is the U.S. government's official web portal to all federal, state and local government web resources and services.